Kuchera_Ratio
4.1 3.7 3.9 6.3 6.6 5.2 9.0 7.3 12.2 8.6 8.4 5.8 4.5 3.6 4.9 3.0 0.0 0.0 0.0 0.0 0.0 0.0 0.0 0.0 0.0 0.0 0.0 0.0 0.0 0.0 0.0 0.0 0.0 0.0 0.0 0.0 0.0 0.0 0.0 0.0 0.0 0.0 0.0 0.0
9.7 5.6 5.1 7.7 5.6 4.2 4.2 4.6 5.2 4.7 6.8 0.0 0.0 0.0 2.3 1.6 0.0 0.0 0.0 0.0 0.0 0.0 0.0 0.0 0.0 0.0 0.0 0.0 0.0 0.0 0.0 0.0 0.0 0.0 0.0 0.0 0.0 0.0 0.0 0.0 0.0 0.0 0.0 0.0
12.9 7.9 8.0 13.1 6.8 7.0 4.3 3.1 4.1 9.3 2.9 0.0 1.4 1.8 1.9 1.0 0.0 0.0 0.0 0.0 0.0 0.0 0.0 0.0 0.0 0.0 0.0 0.0 0.0 0.0 0.0 0.0 0.0 0.0 0.0 0.0 0.0 0.0 0.0 0.0 0.0 0.0 0.0 0.0
12.6 9.0 15.5 7.4 0.0 0.0 2.3 1.2 1.0 0.7 0.2 0.0 0.0 0.0 0.0 0.0 0.2 0.3 0.0 0.0 0.0 0.0 0.0 0.0 0.0 0.0 0.0 0.0 0.0 0.0 0.0 0.0 0.0 0.0 0.0 0.0 0.0 0.0 0.0 0.0 0.0 0.0 0.0 0.0
12.6 12.9 9.5 6.9 0.7 0.4 6.3 6.0 1.0 1.6 1.5 0.0 0.0 0.0 0.0 0.0 0.0 0.0 0.0 0.0 0.0 0.0 0.0 0.0 0.0 0.0 0.0 0.0 0.0 0.0 0.0 0.0 0.0 0.0 0.0 0.0 0.0 0.0 0.0 0.0 0.0 0.0 0.0 0.0
12.4 13.0 14.5 4.8 0.2 0.0 0.0 8.7 0.0 0.0 0.0 1.0 0.0 4.8 5.6 0.8 0.0 0.6 0.3 0.0 0.0 0.0 0.0 0.0 0.0 0.0 0.0 0.0 0.0 0.0 0.0 0.0 0.0 0.0 0.0 0.0 0.0 0.0 0.0 0.0 0.0 0.0 0.0 0.0
12.3 12.3 7.9 0.0 0.0 0.0 12.2 5.9 0.0 0.0 0.0 0.0 0.7 2.6 2.2 0.0 0.8 0.6 1.3 0.4 0.0 0.0 0.0 0.0 0.0 0.0 0.0 0.0 0.0 0.0 0.0 0.0 0.0 0.0 0.0 0.0 0.0 0.0 0.0 0.0 0.0 0.0 0.0 0.0
11.4 12.1 12.5 0.0 0.0 5.8 0.0 0.0 0.0 0.0 0.0 0.3 0.1 0.2 0.0 0.0 0.2 0.0 0.0 0.0 0.0 0.0 0.0 0.0 0.0 0.0 0.0 0.0 0.1 0.0 0.0 0.0 0.0 0.0 0.0 0.0 0.0 0.0 0.0 0.0 0.0 0.0 0.0 0.0
6.5 3.4 0.0 0.0 0.0 0.0 0.0 0.0 0.0 0.0 0.0 0.0 0.0 0.9 0.0 0.5 0.1 0.4 0.0 0.0 0.0 0.0 0.0 0.0 0.0 0.0 0.0 0.3 0.0 0.0 0.0 0.0 0.0 0.0 0.0 0.0 0.0 0.0 0.0 0.0 0.0 0.1 0.0 0.0
2.9 0.0 0.0 0.0 0.0 0.0 0.0 0.0 0.0 0.0 0.0 0.0 0.0 0.0 0.0 0.0 0.0 0.0 0.0 0.2 0.0 0.0 0.1 0.7 1.1 0.4 0.8 1.3 1.0 0.0 0.0 0.4 0.4 0.3 1.4 1.8 0.1 0.0 1.3 0.0 0.1 1.3 2.0 1.6
1.0 0.0 0.0 0.0 0.0 0.0 0.0 0.0 0.0 0.0 0.0 0.0 0.0 0.0 0.0 0.0 0.0 0.0 0.0 0.0 0.0 0.0 0.1 0.9 0.0 0.0 0.4 1.5 0.9 0.4 1.0 1.8 2.7 3.6 3.9 4.4 4.2 3.6 2.5 0.0 0.0 0.2 0.0 0.0
0.0 0.0 0.0 0.0 0.0 0.0 0.0 0.0 0.0 0.0 0.0 0.0 0.0 0.0 0.0 0.0 0.0 0.0 0.0 0.1 1.1 1.3 2.0 3.1 3.4 3.7 4.0 3.7 3.4 4.2 4.8 4.6 3.7 4.8 4.0 5.0 4.9 5.0 0.0 0.0 0.0 0.0 0.0 0.0
0.0 0.0 0.0 0.0 0.0 0.0 0.0 0.0 0.0 0.0 0.0 0.0 0.0 0.0 0.0 0.0 0.0 0.0 0.0 0.0 0.0 0.4 1.7 2.6 2.7 3.3 3.9 3.7 4.5 5.8 6.6 6.5 6.7 7.1 8.0 7.1 6.9 6.4 5.7 6.6 0.0 0.0 0.0 0.0
0.0 0.0 0.0 0.0 0.0 0.0 0.0 0.0 0.0 0.0 0.0 0.0 0.0 0.0 0.0 0.0 0.0 0.0 0.0 0.0 0.0 0.3 0.5 0.9 1.5 2.3 4.4 5.6 5.6 6.3 6.2 4.1 8.0 9.0 8.1 7.3 7.1 7.6 9.0 10.2 9.4 9.5 3.7 1.6
0.0 0.0 0.0 0.0 0.0 0.0 0.0 0.0 0.0 0.0 0.0 0.0 0.0 0.0 0.0 0.0 0.0 0.0 0.0 0.0 0.0 0.0 0.0 0.0 0.0 0.3 2.4 3.7 4.7 5.2 6.3 7.2 7.5 7.4 7.3 7.9 8.9 10.4 10.8 11.3 11.9 11.4 10.3 8.9
0.0 0.0 0.0 0.0 0.0 0.0 0.0 0.0 0.0 0.0 0.0 0.0 0.0 0.0 0.0 0.0 0.0 0.0 0.0 0.3 1.4 2.1 1.7 2.8 3.1 2.3 3.3 4.0 4.7 6.0 6.7 5.1 5.9 9.1 9.3 10.0 11.1 11.4 12.0 12.3 12.5 12.6 12.6 12.6
0.0 0.0 0.0 0.0 0.0 0.0 0.0 0.0 0.0 0.0 0.0 0.0 0.0 0.0 0.0 0.0 0.3 1.2 2.2 3.2 3.0 2.8 2.1 1.0 3.5 4.0 4.7 5.4 6.2 7.2 7.9 8.4 5.3 9.8 10.3 11.5 12.0 12.2 12.5 12.8 13.0 13.1 13.1 12.2
0.0 0.0 0.0 0.0 0.0 0.0 0.0 0.0 0.0 0.0 0.0 0.0 0.0 0.0 0.0 1.5 1.3 2.1 3.2 3.8 4.4 4.7 4.4 3.7 4.2 4.7 5.4 6.3 7.1 7.9 8.8 9.4 10.1 10.7 11.8 12.1 12.1 12.2 12.5 12.7 12.8 13.1 13.0 12.6
0.0 0.0 0.0 0.0 0.0 0.0 0.0 0.0 0.0 0.0 0.0 0.0 0.0 0.0 0.0 0.5 2.0 3.4 3.9 5.0 5.8 6.5 3.9 3.7 4.1 5.4 6.2 6.1 7.0 7.8 9.0 9.7 10.0 10.6 11.6 11.0 11.9 12.1 12.4 12.6 12.8 13.0 13.2 13.0
0.0 0.0 0.0 0.0 0.0 0.0 0.0 0.0 0.0 0.0 0.0 0.0 0.0 0.0 0.2 1.2 3.1 4.1 4.8 5.2 5.7 4.8 4.6 4.9 5.5 6.1 6.2 6.5 4.8 8.5 9.4 10.6 11.3 11.9 12.2 12.2 12.5 12.7 12.7 12.6 12.8 13.0 13.3 13.6
0.0 0.0 0.0 0.0 0.0 0.0 0.0 0.0 0.0 0.0 0.0 0.0 0.0 0.0 0.0 2.0 3.7 4.7 5.1 6.1 4.5 4.1 4.6 5.6 6.4 6.7 7.0 7.3 8.2 9.3 10.2 11.5 12.2 12.4 12.6 12.7 13.0 13.0 13.0 13.0 13.1 13.5 13.9 14.3
0.0 0.0 0.0 0.0 0.0 0.0 0.0 0.0 0.0 0.0 0.0 0.0 0.0 1.0 2.5 3.4 5.1 6.2 6.8 7.1 4.7 3.9 6.0 6.1 6.1 6.4 7.0 5.2 9.2 9.8 10.9 12.0 12.4 12.6 13.0 13.2 13.4 13.4 13.5 13.4 13.7 13.8 14.2 14.7
0.0 0.0 0.0 0.0 0.0 0.0 0.0 0.0 0.0 0.0 0.0 0.0 0.6 1.4 2.4 3.9 5.4 7.2 7.3 5.3 5.3 6.5 6.8 6.2 6.3 5.2 3.2 8.8 9.1 9.6 10.8 11.6 12.3 12.7 12.8 12.9 13.0 13.2 13.5 13.5 13.6 14.1 14.5 15.0
0.0 0.0 0.0 0.0 0.0 0.0 0.4 0.0 0.0 0.0 0.0 0.0 1.4 3.0 4.3 5.9 6.6 7.1 5.9 6.0 4.0 5.2 7.4 6.7 6.9 3.0 1.4 8.6 9.2 9.9 10.2 10.8 11.5 11.9 12.2 11.8 13.3 13.2 13.5 13.3 13.7 14.0 14.8 15.6
0.0 0.0 0.0 2.3 1.9 1.2 0.1 0.0 2.1 2.7 3.0 3.3 4.2 5.2 5.6 6.0 6.3 5.5 5.8 6.6 6.6 6.9 8.7 6.2 3.4 2.4 6.4 8.7 9.0 9.9 10.4 10.7 11.3 12.1 12.7 13.2 12.9 12.9 12.9 13.3 13.9 14.7 15.4 16.0
0.5 1.2 0.0 0.0 0.4 0.0 0.1 2.6 3.2 3.2 3.7 4.1 5.2 6.3 6.5 7.3 7.8 8.7 8.7 9.0 9.7 10.0 10.4 10.3 10.7 11.2 12.0 12.5 12.6 12.5 12.7 12.8 13.0 13.0 13.1 13.3 13.3 13.4 13.6 14.1 14.7 15.4 16.0 16.6
1.4 4.0 4.4 4.9 1.6 3.0 3.0 2.8 3.7 4.4 5.0 5.1 5.3 6.7 7.9 8.3 9.3 9.4 9.7 10.3 11.0 11.5 11.9 12.1 12.3 12.6 12.8 12.9 13.1 13.3 13.4 13.5 12.8 13.6 13.6 13.7 13.9 14.3 14.9 15.4 15.9 16.6 17.0 17.6